This demonstration page uses our WeatherBlox Daily Observations layout. Learn more.

Left ArrowRight Arrow

Hourly Observations for November 11, 2020

Temp ( °F °C ) Dew Point ( °F °C ) Humidity (%) Winds ( mph kmh ) Pressure ( in mb ) Visibility ( mi km ) Precip ( " mm )
12:54 am 00:54 Clear 26 -3.3 23 -5 88 88 SSE 3 6 30.01 1016 10 16.0934 0 0
1:54 am 01:54 Clear 26 -3.3 22 -5.6 84 84 S 6 9 30.01 1016 10 16.0934 0 0
2:54 am 02:54 Clear 25 -3.9 22 -5.6 88 88 S 7 11 30.03 1017 10 16.0934 0 0
3:54 am 03:54 Clear 22 -5.6 20 -6.7 92 92 S 7 11 30.03 1017 10 16.0934 0 0
4:54 am 04:54 Clear 24 -4.4 20 -6.7 84 84 SSE 5 7 30.04 1017 10 16.0934 0 0
5:54 am 05:54 Clear 24 -4.4 21 -6.1 88 88 S 5 7 30.04 1017 10 16.0934 0 0
6:54 am 06:54 Clear 24 -4.4 21 -6.1 88 88 Calm 30.05 1018 10 16.0934 0 0
7:54 am 07:54 Mostly Sunny 28 -2.2 24 -4.4 85 85 SSE 8 13 30.07 1018 10 16.0934 0 0
8:54 am 08:54 Sunny 32 0 28 -2.2 85 85 SSE 5 7 30.08 1019 10 16.0934 0 0
9:54 am 09:54 Sunny 38 3.3 29 -1.7 70 70 WSW 12 19 30.08 1019 10 16.0934 0 0
10:54 am 10:54 Cloudy 44 6.7 29 -1.7 55 55 WSW 17 28 30.09 1019 10 16.0934 0 0
11:54 am 11:54 Sunny 50 10 31 -0.6 48 48 WSW 17 28 30.07 1018 10 16.0934 0 0
12:54 pm 12:54 Sunny 53 11.7 31 -0.6 43 43 WSW 18 30 30.05 1018 10 16.0934 0 0
1:54 pm 13:54 Sunny 54 12.2 32 0 43 43 W 16 26 30.05 1018 10 16.0934 0 0
2:54 pm 14:54 Sunny 55 12.8 29 -1.7 37 37 W 14 22 30.04 1017 10 16.0934 0 0
3:54 pm 15:54 Sunny 54 12.2 30 -1.1 40 40 SW 13 20 30.04 1017 10 16.0934 0 0
4:54 pm 16:54 Sunny 50 10 33 0.6 52 52 S 3 6 30.04 1017 10 16.0934 0 0
5:54 pm 17:54 Clear 43 6.1 31 -0.6 63 63 Calm 30.04 1017 10 16.0934 0 0
6:54 pm 18:54 Clear 40 4.4 31 -0.6 70 70 Calm 30.07 1018 10 16.0934 0 0
7:54 pm 19:54 Clear 39 3.9 31 -0.6 73 73 SSE 7 11 30.07 1018 10 16.0934 0 0
8:54 pm 20:54 Clear 36 2.2 28 -2.2 73 73 Calm 30.07 1018 10 16.0934 0 0
9:54 pm 21:54 Clear 34 1.1 28 -2.2 79 79 SSE 3 6 30.07 1018 10 16.0934 0 0
10:54 pm 22:54 Clear 35 1.7 28 -2.2 76 76 S 5 7 30.06 1018 10 16.0934 0 0
11:54 pm 23:54 Clear 34 1.1 27 -2.8 76 76 Calm 30.06 1018 10 16.0934 0 0

Powered by AerisWeather